Location: Luxembourg
(49.6117°N, 6.1300°E)
Time: 22:23:02
(UTC+01:00)

Envisat - Pass Details

Date: 30 January 2019
Orbit: 764 x 766 km, 98.2° (Epoch: 19 February)

Event Time Altitude Azimuth Distance (km) Brightness Sun altitude
Rises 06:33:33 0° 32° (NNE) 3,243 6.6 -15.8°
Reaches altitude 10° 06:38:00 10° 69° (ENE) 2,308 6.4 -15.1°
Maximum altitude 06:39:16 11° 84° (E) 2,246 6.6 -14.9°
Drops below altitude 10° 06:40:32 10° 98° (E) 2,303 6.9 -14.7°
Sets 06:44:56 0° 135° (SE) 3,221 7.2 -14.0°
